[[{"header":{"parameterUnit":"m.s-1","parameterCategory":1,"la1":30.2991,"la2":30.254,"lo1":-89.0895,"lo2":-89.0444,"dy":0.0017,"dx":0.0017,"nx":28,"ny":28,"refTime":"2025-04-13T03:00:00:Z","depth":0,"parameterNumber":2,"parameterNumberName":"U-component_of_WINDS"},"data":[0,0,0,0,0,0,0,0,0,0,0,0,0,0,0,0,0,0,0,0,0,0,0,0,0,0,0,0,0,0,0,0,0,0,0,0,0,0,0,0,0,0,0,0,0,0,0,0,0,0,0,0,0,0,0,0,0,0,3.2396,3.2397,0,3.2489,3.249,3.2491,3.2454,3.2452,3.245,3.2448,3.2542,3.2546,3.255,0,0,0,0,0,0,0,0,0,0,0,0,0,3.2181,3.2185,3.2395,3.2397,3.2398,3.2489,3.249,3.2491,3.2454,3.2452,3.2449,3.2447,3.254,3.2545,3.2551,0,0,0,0,0,0,0,0,0,0,0,0,0,3.2274,3.2186,3.2395,3.239,3.2391,3.2488,3.249,3.2492,3.2455,3.2452,3.2448,3.2445,3.2538,3.2545,3.2552,3.2659,0,0,3.2572,3.2575,0,0,0,0,0,0,0,0,3.2269,3.2282,3.239,3.2391,3.2392,3.2456,3.2449,3.2548,3.2456,3.2431,3.2447,3.2444,3.2516,3.2524,3.2549,3.2663,3.2667,3.2573,3.2577,3.258,3.2582,0,0,0,0,0,0,0,3.2262,3.2278,3.2432,3.2391,3.2393,3.2382,3.2392,3.2467,3.249,3.2432,3.243,3.2442,3.2516,3.2542,3.2551,3.2669,3.2573,3.2579,3.2583,3.2586,3.2871,3.2874,0,0,0,0,0,0,3.2256,3.2272,3.2429,3.2435,3.2321,3.2389,3.2399,3.2439,3.2489,3.2494,3.2444,3.244,3.2532,3.2543,3.2554,3.2679,3.258,3.2586,3.259,3.2867,3.2871,3.2875,0,0,0,0,0,0,3.2252,3.227,3.2426,3.2353,3.2372,3.2396,3.244,3.2442,3.2469,3.2498,3.2502,3.2468,3.253,3.2544,3.2632,3.2682,3.2589,3.2596,3.2863,3.2868,3.2873,3.2933,0,0,0,0,0,0,3.2246,3.2269,3.2311,3.2354,3.2376,3.2504,3.2444,3.2447,3.2481,3.2476,3.2521,3.2526,3.2529,3.2622,3.2639,3.269,3.2601,3.2859,3.2865,3.2872,3.2926,3.2939,3.295,0,0,0,0,0,3.2238,3.2325,3.2314,3.2333,3.243,3.2507,3.2519,3.2521,3.2486,3.2527,3.2545,3.2524,3.2674,3.2631,3.265,3.2703,3.2855,3.2864,3.2871,3.2921,3.2937,3.295,0,0,0,0,0,0,3.2287,3.2331,3.2319,3.2423,3.2461,3.25,3.2553,3.2539,3.2588,3.2581,3.2581,3.2591,3.2681,3.2702,3.2653,3.2807,3.2759,3.2771,3.2791,3.2806,3.2818,3.2809,3.2607,0,0,0,0,0,3.231,3.237,3.2405,3.2493,3.2513,3.253,3.2563,3.2562,3.2601,3.2617,3.2642,3.2681,3.2736,3.2773,3.2826,3.293,3.2936,3.2975,3.2987,3.2997,3.3006,3.3058,3.3074,3.2901,3.2901,3.2901,0,0,3.2358,3.2389,3.2428,3.2503,3.2533,3.2593,3.2544,3.2611,3.2654,3.2627,3.271,3.273,3.2773,3.2868,3.2911,3.2888,3.3056,3.3007,3.3015,3.3019,3.3068,3.3084,3.3099,3.2906,3.2905,3.2904,0,0,3.2476,3.2507,3.2582,3.2612,3.2657,3.2667,3.2685,3.2726,3.2738,3.2822,3.2801,3.2853,3.295,3.2979,3.3007,3.3133,3.3113,3.315,3.3212,3.3262,3.3276,3.3288,3.3328,3.3343,3.316,3.316,3.316,0,3.2529,3.262,3.2622,3.2689,3.2721,3.27,3.2773,3.2803,3.2863,3.2885,3.2858,3.2976,3.3004,3.3103,3.3133,3.3158,3.3175,3.3144,3.3274,3.3286,3.3297,3.3336,3.3351,3.3164,3.3163,3.3163,3.3163,0,3.2681,3.2744,3.2799,3.2856,3.2895,3.2966,3.2976,3.3015,3.3009,3.3021,3.3104,3.3136,3.3193,3.3217,3.3214,3.3315,3.3299,3.3274,3.3224,3.3317,3.3353,3.3369,3.3169,3.3168,3.3167,3.3166,0,0,3.2832,3.2888,3.2908,3.2932,3.2979,3.3027,3.3095,3.315,3.3181,3.3224,3.3278,3.3359,3.3334,3.3366,3.3364,3.3409,3.3501,3.3378,3.3378,3.3396,3.361,3.3626,3.3643,3.3489,3.3492,3.3495,3.3605,0,3.295,3.3069,3.3071,3.318,3.3235,3.3215,3.3273,3.3307,3.332,3.3368,3.3382,3.3437,3.3403,3.3421,3.3465,3.348,3.3543,3.3473,3.3537,3.3539,3.3523,3.3663,3.3681,3.3784,3.3619,3.3622,3.3624,0,3.3103,3.3148,3.3262,3.3298,3.3321,3.3374,3.3422,3.347,3.3507,3.3512,3.3546,3.3537,3.3604,3.3554,3.3644,3.3596,3.3622,3.3633,3.3637,3.3641,3.3585,3.3666,3.3817,3.3831,3.3647,3.3645,3.3643,0,3.3196,3.3286,3.3365,3.3386,3.3431,3.3468,3.3488,3.3522,3.3553,3.3596,3.3616,3.3666,3.3693,3.3731,3.3734,3.3699,3.3823,3.3775,3.3826,3.3826,3.3851,3.3849,3.4004,3.3874,3.3874,3.3874,3.3874,0,3.3325,3.3395,3.3406,3.3454,3.353,3.3532,3.3606,3.3623,3.3653,3.3702,3.3688,3.3734,3.3738,3.3784,3.3788,3.3859,3.3872,3.3876,3.3875,3.3875,3.3874,3.389,3.3882,3.3878,3.3877,3.3876,3.3876,0,3.3441,3.3453,3.3536,3.3571,3.3581,3.3635,3.3663,3.3708,3.3719,3.3781,3.3795,3.3812,3.3865,3.3873,3.3937,3.3939,3.4023,3.4017,3.401,3.4008,3.4058,3.4051,3.4226,3.4247,3.4107,3.4108,3.4109,0,3.3521,3.3574,3.3613,3.3645,3.3667,3.3719,3.3751,3.3753,3.3787,3.3831,3.3869,3.3921,3.3963,3.405,3.4066,3.4114,3.4106,3.4164,3.4113,3.411,3.4102,3.4097,3.4101,3.4173,3.4175,3.4176,3.4177,0,3.366,3.3662,3.3709,3.3757,3.3796,3.3834,3.387,3.3896,3.3903,3.3941,3.3995,3.4028,3.4091,3.4142,3.4188,3.4207,3.4192,3.4193,3.4206,3.4205,3.4197,3.4198,3.4033,3.4188,3.4187,3.4186,3.4186,3.4185,3.3758,3.3802,3.3835,3.3887,3.3914,3.3947,3.3989,3.4005,3.405,3.4102,3.4101,3.416,3.4192,3.4253,3.4274,3.4319,3.43,3.4321,3.4325,3.433,3.4332,3.4193,3.4328,3.4328,3.4327,3.4327,3.4327,0,3.3892,3.3912,3.396,3.401,3.4049,3.4033,3.4071,3.4104,3.4156,3.4188,3.4229,3.429,3.4338,3.4358,3.4405,3.4436,3.443,3.4448,3.4444,3.4448,3.4349,3.433,3.4452,3.4452,3.4452,3.4452,3.4452,3.4452,3.3966,3.4039,3.4044,3.4129,3.4148,3.4206,3.4228,3.4257,3.4282,3.435,3.439,3.4403,3.4429,3.4477,3.452,3.4524,3.454,3.456,3.4561,3.4468,3.4455,3.4443,3.4425,3.4565,3.4565,3.4656,3.4656,3.4657]},{"header":{"parameterUnit":"m.s-1","parameterCategory":1,"la1":30.2991,"la2":30.254,"lo1":-89.0895,"lo2":-89.0444,"dy":0.0017,"dx":0.0017,"nx":28,"ny":28,"refTime":"2025-04-13T03:00:00:Z","depth":0,"parameterNumber":3,"parameterNumberName":"V-component_of_WINDS"},"data":[0,0,0,0,0,0,0,0,0,0,0,0,0,0,0,0,0,0,0,0,0,0,0,0,0,0,0,0,0,0,0,0,0,0,0,0,0,0,0,0,0,0,0,0,0,0,0,0,0,0,0,0,0,0,0,0,0,0,3.4231,3.4232,0,3.4308,3.4309,3.431,3.4276,3.4274,3.4272,3.4271,3.4346,3.4349,3.4353,0,0,0,0,0,0,0,0,0,0,0,0,0,3.405,3.4053,3.4231,3.4232,3.4233,3.4308,3.4309,3.431,3.4276,3.4274,3.4272,3.427,3.4345,3.4349,3.4353,0,0,0,0,0,0,0,0,0,0,0,0,0,3.4128,3.4055,3.4231,3.4225,3.4226,3.4308,3.4309,3.431,3.4277,3.4274,3.4271,3.4269,3.4343,3.4349,3.4354,3.4445,0,0,3.4371,3.4374,0,0,0,0,0,0,0,0,3.4123,3.4135,3.4225,3.4226,3.4226,3.428,3.4273,3.4355,3.4278,3.4257,3.4271,3.4267,3.4326,3.4333,3.4353,3.4449,3.4452,3.4372,3.4375,3.4378,3.4379,0,0,0,0,0,0,0,3.4118,3.4131,3.4262,3.4227,3.4227,3.4217,3.4225,3.4288,3.4306,3.4259,3.4257,3.4266,3.4326,3.4348,3.4355,3.4453,3.4372,3.4377,3.438,3.4382,3.4624,3.4627,0,0,0,0,0,0,3.4113,3.4127,3.4259,3.4264,3.4167,3.4223,3.4232,3.4265,3.4306,3.4309,3.4269,3.4265,3.434,3.4348,3.4357,3.4465,3.4378,3.4383,3.4386,3.4621,3.4624,3.4628,0,0,0,0,0,0,3.411,3.4126,3.4256,3.4195,3.4211,3.4229,3.4267,3.4268,3.4291,3.4313,3.4316,3.4289,3.4338,3.4349,3.4423,3.4467,3.4385,3.439,3.4617,3.4622,3.4626,3.4681,0,0,0,0,0,0,3.4105,3.4124,3.4161,3.4196,3.4214,3.4322,3.427,3.4272,3.4301,3.4296,3.4332,3.4336,3.4336,3.4415,3.4429,3.4473,3.4395,3.4613,3.4619,3.4625,3.4676,3.4687,3.4697,0,0,0,0,0,3.4098,3.4173,3.4163,3.4179,3.426,3.4325,3.4335,3.4336,3.4305,3.434,3.4354,3.4334,3.446,3.4423,3.4438,3.4485,3.4611,3.4618,3.4624,3.4671,3.4685,3.4697,0,0,0,0,0,0,3.4141,3.4177,3.4166,3.4255,3.4287,3.4319,3.4364,3.4351,3.4392,3.4386,3.4383,3.4392,3.4468,3.4484,3.4442,3.4573,3.453,3.454,3.456,3.4574,3.4584,3.4578,3.44,0,0,0,0,0,3.4161,3.4213,3.4241,3.4316,3.4333,3.4346,3.4374,3.4372,3.4405,3.4418,3.4437,3.4469,3.4515,3.4545,3.4589,3.4678,3.4684,3.4717,3.4728,3.4736,3.4745,3.479,3.4805,3.465,3.465,3.465,0,0,3.4203,3.4229,3.4261,3.4325,3.435,3.4401,3.4358,3.4414,3.4452,3.4426,3.4497,3.4512,3.4547,3.4628,3.4664,3.4643,3.4789,3.4745,3.4752,3.4756,3.4799,3.4813,3.4826,3.4655,3.4654,3.4653,0,0,3.4305,3.4331,3.4395,3.4421,3.4459,3.4466,3.4482,3.4516,3.4525,3.4596,3.4577,3.4621,3.4701,3.4726,3.4749,3.4858,3.484,3.4872,3.4928,3.4972,3.4984,3.4995,3.5032,3.5045,3.4881,3.4881,3.4881,0,3.4351,3.4429,3.4429,3.4487,3.4515,3.4495,3.4559,3.4583,3.4633,3.4652,3.4628,3.4727,3.4749,3.4834,3.486,3.488,3.4896,3.4868,3.4983,3.4993,3.5003,3.5038,3.5052,3.4884,3.4884,3.4883,3.4883,0,3.4483,3.4538,3.4585,3.4634,3.4667,3.4728,3.4735,3.4768,3.4763,3.4772,3.4843,3.4869,3.4917,3.4937,3.4932,3.5021,3.5006,3.4983,3.4939,3.5022,3.5054,3.5068,3.4889,3.4888,3.4887,3.4886,0,0,3.4615,3.4663,3.468,3.4701,3.4741,3.4782,3.484,3.4888,3.4915,3.495,3.4997,3.5065,3.5043,3.5069,3.5066,3.5105,3.5187,3.5076,3.5077,3.5095,3.5284,3.5301,3.5317,3.5176,3.5179,3.5181,3.5281,0,3.4718,3.4823,3.4823,3.4918,3.4967,3.4947,3.4998,3.5027,3.5037,3.5078,3.5088,3.5136,3.5104,3.5119,3.5157,3.5169,3.5225,3.5162,3.5218,3.522,3.5209,3.5334,3.5352,3.5446,3.5294,3.5296,3.5298,0,3.4853,3.4892,3.4992,3.5023,3.5043,3.5089,3.5131,3.5172,3.5203,3.5207,3.5236,3.5227,3.5284,3.5239,3.5316,3.5274,3.5296,3.5306,3.5309,3.5314,3.5263,3.534,3.5475,3.5489,3.5318,3.5316,3.5315,0,3.4937,3.5015,3.5084,3.5103,3.5141,3.5173,3.519,3.5219,3.5246,3.5283,3.53,3.5343,3.5366,3.5398,3.5399,3.5367,3.5476,3.5432,3.548,3.548,3.5503,3.5501,3.5642,3.552,3.552,3.552,3.5519,0,3.5051,3.5113,3.5122,3.5164,3.5232,3.5231,3.5297,3.5311,3.5336,3.538,3.5365,3.5406,3.5406,3.5447,3.5448,3.551,3.5521,3.5525,3.5524,3.5526,3.5525,3.554,3.5533,3.5523,3.5523,3.5522,3.5521,0,3.5156,3.5165,3.5239,3.5269,3.5277,3.5325,3.535,3.5389,3.5397,3.5452,3.5465,3.5477,3.5524,3.5529,3.5584,3.5585,3.566,3.5653,3.565,3.5648,3.5694,3.5689,3.5849,3.5869,3.5735,3.5736,3.5737,0,3.5228,3.5275,3.5309,3.5338,3.5357,3.5403,3.5431,3.5431,3.5461,3.5499,3.5533,3.5579,3.5615,3.5691,3.5703,3.5744,3.5737,3.579,3.5743,3.5743,3.5736,3.5733,3.5736,3.5799,3.5801,3.5802,3.5803,0,3.5354,3.5356,3.5397,3.5441,3.5475,3.5508,3.554,3.5563,3.5567,3.5601,3.5649,3.5677,3.5733,3.5777,3.5817,3.5833,3.5818,3.5818,3.583,3.5832,3.5827,3.5828,3.5673,3.5814,3.5813,3.5812,3.5811,3.5811,3.5443,3.5483,3.5513,3.556,3.5583,3.5613,3.565,3.5663,3.5704,3.575,3.5747,3.58,3.5827,3.5879,3.5898,3.5937,3.5919,3.5939,3.5943,3.5948,3.5951,3.5822,3.5945,3.5945,3.5944,3.5944,3.5944,0,3.5567,3.5585,3.5628,3.5672,3.5708,3.5692,3.5725,3.5756,3.5803,3.583,3.5867,3.5921,3.5963,3.5979,3.6021,3.6049,3.6043,3.606,3.6057,3.606,3.5966,3.595,3.6064,3.6064,3.6064,3.6064,3.6064,3.6064,3.5635,3.5701,3.5706,3.5783,3.58,3.5852,3.5872,3.5898,3.592,3.5982,3.6017,3.6028,3.605,3.6092,3.613,3.6133,3.6148,3.6168,3.6168,3.6079,3.6067,3.6056,3.6041,3.6171,3.6172,3.6259,3.6259,3.626]}]]